Location: Cran-Gévrier
(45.9039°N, 6.1012°E)
Time: 20:21:16
(UTC+00:00)

COSMO-SKYMED 1 - Pass Details

Date: 09 February 2023
Orbit: 621 x 623 km, 97.9° (Epoch: 23 March)

Event Time Altitude Azimuth Distance (km) Brightness Sun altitude
Rises 17:18:05 0° 19° (NNE) 2,917 5.7 -5.1°
Reaches altitude 10° 17:20:22 10° 26° (NNE) 2,005 4.8 -5.4°
Maximum altitude 17:24:33 44° 99° (E) 869 2.9 -6.1°
Drops below altitude 10° 17:28:41 10° 171° (S) 1,987 5.2 -6.8°
Sets 17:30:57 0° 178° (S) 2,888 6.2 -7.2°
